Location: Prague
(50.0830°N, 14.4670°E)
Time: 23:50:17
(UTC+02:00)

Tiangong - Pass Details

Date: 30 September 2021
Orbit: 382 x 385 km, 41.5° (Epoch: 15 October)

Event Time Altitude Azimuth Distance (km) Brightness Sun altitude
Exits shadow 05:15:00 13° 174° (S) 1,218 3.5 -17.6°
Maximum altitude 05:15:22 14° 166° (SSE) 1,208 3.5 -17.5°
Drops below altitude 10° 05:17:00 10° 134° (SE) 1,398 4.3 -17.3°
Sets 05:19:50 0° 107° (ESE) 2,252 5.9 -16.8°
